KRUPKA Weather Reports


time (UTC)temp
C
wind
direction
speed
KPH
gust
KPH
rain 1hr
cm
rain 24hr
cm
rain mn
cm
humidity
%
barometer
mb
20260505010003 13 11 11.3 20.9 0.00 0.00 0.00 60
20260505005504 13 8 11.3 17.7 0.00 0.00 0.00 60
20260505005004 13 11 11.3 17.7 0.00 0.00 0.00 60
20260505004504 13 7 14.5 20.9 0.00 0.00 0.00 60
20260505004003 13 6 17.7 20.9 0.00 0.00 0.00 60
20260505003503 13 10 14.5 17.7 0.00 0.00 0.00 59
20260505003003 13 19 6.4 14.5 0.00 0.00 0.00 59
20260505002503 13 13 11.3 17.7 0.00 0.00 0.00 59
20260505002004 13 11 11.3 17.7 0.00 0.00 0.00 59
20260505001504 13 27 11.3 14.5 0.00 0.00 0.00 59
20260505001004 13 31 6.4 11.3 0.00 0.00 0.00 58
20260505000504 13 19 6.4 14.5 0.00 0.00 0.00 58
20260505000004 15 17 6.4 11.3 0.00 0.00 0.00 57
20260504235503 15 359 11.3 17.7 0.00 0.00 0.00 57
20260504235003 15 21 6.4 11.3 0.00 0.00 0.00 56
20260504234503 15 29 6.4 11.3 0.00 0.00 0.00 55
20260504234002 16 38 11.3 11.3 0.00 0.00 0.00 55
20260504233504 16 61 6.4 11.3 0.00 0.00 0.00 55
20260504233003 15 53 14.5 20.9 0.00 0.00 0.00 55
20260504232503 15 44 14.5 17.7 0.00 0.00 0.00 56
20260504232006 15 35 11.3 17.7 0.00 0.00 0.00 56
20260504231510 15 41 6.4 11.3 0.00 0.00 0.00 55
20260504231002 15 53 6.4 11.3 0.00 0.00 0.00 55
20260504230503 16 60 11.3 14.5 0.00 0.00 0.00 55
20260504230003 15 60 11.3 14.5 0.00 0.00 0.00 55
20260504225503 15 57 11.3 14.5 0.00 0.00 0.00 56
20260504225003 15 50 11.3 14.5 0.00 0.00 0.00 56
20260504224504 15 39 6.4 14.5 0.00 0.00 0.00 57
20260504224003 15 36 6.4 14.5 0.00 0.00 0.00 57
20260504223508 15 27 11.3 14.5 0.00 0.00 0.00 58
20260504223003 15 32 11.3 14.5 0.00 0.00 0.00 58
20260504222502 15 31 6.4 14.5 0.00 0.00 0.00 58
20260504222006 15 22 11.3 17.7 0.00 0.00 0.00 58
20260504221504 15 10 11.3 17.7 0.00 0.00 0.00 59
20260504221003 15 15 11.3 14.5 0.00 0.00 0.00 59
20260504220504 15 26 11.3 14.5 0.00 0.00 0.00 58
20260504220004 15 17 6.4 17.7 0.00 0.00 0.00 58
20260504215503 15 17 14.5 20.9 0.00 0.00 0.00 59
20260504215004 15 18 11.3 17.7 0.00 0.00 0.00 59
20260504214503 15 12 11.3 20.9 0.00 0.00 0.00 58
20260504214003 15 19 14.5 25.7 0.00 0.00 0.00 58
20260504213503 15 14 11.3 17.7 0.00 0.00 0.00 58
20260504213004 15 14 14.5 20.9 0.00 0.00 0.00 58
20260504212504 15 9 14.5 25.7 0.00 0.00 0.00 58
20260504212005 15 10 14.5 20.9 0.00 0.00 0.00 58
20260504211503 15 14 11.3 14.5 0.00 0.00 0.00 57
20260504211003 15 12 14.5 17.7 0.00 0.00 0.00 57
20260504210504 15 10 14.5 17.7 0.00 0.00 0.00 57
20260504210004 15 21 14.5 20.9 0.00 0.00 0.00 57
20260504205503 15 14 14.5 20.9 0.00 0.00 0.00 57
20260504205003 15 14 11.3 14.5 0.00 0.00 0.00 57
20260504204503 15 17 11.3 17.7 0.00 0.00 0.00 57
20260504204003 15 23 11.3 17.7 0.00 0.00 0.00 57
20260504203503 15 4 6.4 14.5 0.00 0.00 0.00 57
20260504203004 15 31 11.3 20.9 0.00 0.00 0.00 57
20260504202503 15 4 14.5 17.7 0.00 0.00 0.00 57
20260504202005 15 6 11.3 17.7 0.00 0.00 0.00 57
20260504201504 15 10 11.3 20.9 0.00 0.00 0.00 57
20260504201003 15 15 14.5 20.9 0.00 0.00 0.00 57
20260504200504 15 17 14.5 20.9 0.00 0.00 0.00 58
20260504200003 15 21 14.5 20.9 0.00 0.00 0.00 58
20260504195504 15 10 11.3 17.7 0.00 0.00 0.00 58
20260504195004 15 13 14.5 20.9 0.00 0.00 0.00 58
20260504194504 15 5 14.5 29.0 0.00 0.00 0.00 58
20260504194003 15 7 14.5 20.9 0.00 0.00 0.00 58
20260504193504 15 16 14.5 25.7 0.00 0.00 0.00 59
20260504193003 15 13 14.5 25.7 0.00 0.00 0.00 58
20260504192503 15 8 11.3 29.0 0.00 0.00 0.00 59
20260504192007 15 5 14.5 25.7 0.00 0.00 0.00 58
20260504191503 15 13 14.5 25.7 0.00 0.00 0.00 58
20260504191003 15 25 17.7 25.7 0.00 0.00 0.00 58
20260504190504 15 3 17.7 25.7 0.00 0.00 0.00 58
20260504190004 15 13 14.5 25.7 0.00 0.00 0.00 58
20260504185503 15 12 14.5 25.7 0.00 0.00 0.00 58
20260504185004 15 16 14.5 25.7 0.00 0.00 0.00 58
20260504184504 15 9 14.5 17.7 0.00 0.00 0.00 57
20260504184003 15 15 14.5 20.9 0.00 0.00 0.00 57
20260504183503 15 3 14.5 20.9 0.00 0.00 0.00 57
20260504183003 15 1 17.7 25.7 0.00 0.00 0.00 57
20260504182503 15 6 14.5 20.9 0.00 0.00 0.00 57
20260504182008 15 5 14.5 20.9 0.00 0.00 0.00 56
20260504181503 16 9 11.3 17.7 0.00 0.00 0.00 56
20260504181004 16 354 6.4 17.7 0.00 0.00 0.00 56
20260504180508 16 2 14.5 20.9 0.00 0.00 0.00 56
20260504180004 16 2 11.3 17.7 0.00 0.00 0.00 55
20260504175503 16 353 11.3 17.7 0.00 0.00 0.00 55
20260504175003 16 2 14.5 25.7 0.00 0.00 0.00 55
20260504174504 16 5 11.3 17.7 0.00 0.00 0.00 55
20260504174003 16 8 14.5 25.7 0.00 0.00 0.00 55
20260504173504 16 4 17.7 25.7 0.00 0.00 0.00 55
20260504173003 16 19 14.5 25.7 0.00 0.00 0.00 55
20260504172503 16 9 11.3 17.7 0.00 0.00 0.00 55
20260504172008 16 358 14.5 20.9 0.00 0.00 0.00 55
20260504171504 16 15 14.5 20.9 0.00 0.00 0.00 55
20260504171003 16 1 14.5 20.9 0.00 0.00 0.00 55
20260504170504 16 7 14.5 25.7 0.00 0.00 0.00 55
20260504151003 18 21 6.4 11.3 0.00 0.00 0.00 48
20260504150503 18 19 11.3 14.5 0.00 0.00 0.00 48
20260504141003 18 213 3.2 6.4 0.00 0.00 0.00 44
20260504140503 18 240 3.2 6.4 0.00 0.00 0.00 44
20260504130504 20 191 11.3 20.9 0.00 0.00 0.00 42
20260504110503 18 239 3.2 11.3 0.00 0.00 0.00 44
20260504100504 17 201 6.4 11.3 0.00 0.00 0.00 46
20260504082004 17 292 0.0 0.0 0.00 0.00 0.00 49
20260504081503 15 252 0.0 0.0 0.00 0.00 0.00 50
20260504081004 15 234 3.2 6.4 0.00 0.00 0.00 49
20260504080504 15 248 0.0 3.2 0.00 0.00 0.00 48
20260504050504 12 166 3.2 3.2 0.00 0.00 0.00 50
20260504050004 12 96 3.2 3.2 0.00 0.00 0.00 50
20260504045503 12 123 3.2 6.4 0.00 0.00 0.00 50
20260504045003 12 87 3.2 6.4 0.00 0.00 0.00 49
20260504044503 12 91 6.4 6.4 0.00 0.00 0.00 49
20260504044004 12 56 3.2 6.4 0.00 0.00 0.00 49
20260504043504 12 60 6.4 6.4 0.00 0.00 0.00 50
20260504043003 12 41 3.2 3.2 0.00 0.00 0.00 49
20260504042503 12 66 3.2 6.4 0.00 0.00 0.00 49
20260504042006 12 77 6.4 6.4 0.00 0.00 0.00 49
20260504041504 12 82 3.2 3.2 0.00 0.00 0.00 48
20260504041003 12 69 3.2 6.4 0.00 0.00 0.00 48
20260504040503 12 56 6.4 6.4 0.00 0.00 0.00 49
20260504040004 12 47 6.4 11.3 0.00 0.00 0.00 48
20260504035502 12 37 6.4 11.3 0.00 0.00 0.00 48
20260504035003 12 76 3.2 6.4 0.00 0.00 0.00 47
20260504034503 12 50 3.2 6.4 0.00 0.00 0.00 48
20260504034002 12 41 3.2 6.4 0.00 0.00 0.00 48
20260504033504 12 47 6.4 11.3 0.00 0.00 0.00 48
20260504033003 13 57 11.3 14.5 0.00 0.00 0.00 48
20260504032503 13 51 11.3 14.5 0.00 0.00 0.00 47
20260504032004 13 20 3.2 11.3 0.00 0.00 0.00 46
20260504031503 13 14 6.4 17.7 0.00 0.00 0.00 46
20260504031003 13 17 11.3 17.7 0.00 0.00 0.00 46
20260504030503 13 7 6.4 17.7 0.00 0.00 0.00 46
20260504030003 12 8 6.4 11.3 0.00 0.00 0.00 46
20260504025502 12 7 6.4 14.5 0.00 0.00 0.00 47
20260504025004 12 354 6.4 11.3 0.00 0.00 0.00 46
20260504024503 12 329 6.4 11.3 0.00 0.00 0.00 46
20260504024003 12 320 3.2 11.3 0.00 0.00 0.00 46
20260504023503 12 341 3.2 6.4 0.00 0.00 0.00 46
20260504023004 13 346 3.2 11.3 0.00 0.00 0.00 46
20260504022502 13 355 6.4 11.3 0.00 0.00 0.00 45
20260504022007 13 345 3.2 3.2 0.00 0.00 0.00 45
20260504021504 13 304 3.2 3.2 0.00 0.00 0.00 45
20260504021004 13 305 3.2 6.4 0.00 0.00 0.00 45
20260504020503 13 303 3.2 6.4 0.00 0.00 0.00 45
20260504020002 13 308 0.0 3.2 0.00 0.00 0.00 45
20260504015503 13 339 3.2 11.3 0.00 0.00 0.00 46
20260504015003 13 338 0.0 3.2 0.00 0.00 0.00 46
20260504014504 13 348 6.4 14.5 0.00 0.00 0.00 46
20260504014003 13 321 3.2 6.4 0.00 0.00 0.00 46
20260504013503 13 9 6.4 11.3 0.00 0.00 0.00 46
20260504013003 13 359 3.2 14.5 0.00 0.00 0.00 46
20260504012503 13 349 3.2 6.4 0.00 0.00 0.00 46
20260504012005 13 13 3.2 6.4 0.00 0.00 0.00 45
20260504011503 13 5 6.4 11.3 0.00 0.00 0.00 45
20260504011004 15 13 3.2 6.4 0.00 0.00 0.00 45
20260504010503 15 18 0.0 3.2 0.00 0.00 0.00 44